Weather in Chapeco

Brazil     27°06′46″S   52°36′42″W
temp.,
°C
wind,
m/s
gust,
m/s
humid.,
%
clouds,
%
prec.,
mm/h
press.,
hPa
HPBL,
m
17 may, mon
mon1700:00+12ne11860 0.0 101910
03:00+11ne11900 0.0 101910
06:00+11nne11924 0.0 101914
09:00+16w017119 0.0 1020227
12:00+21wsw245556 0.0 10181445
15:00+19s2461100 0.0 1017903
18:00+13s11790 0.0 101810
21:00+12ese11840 0.0 102010
18 may, tue
tue1800:00+10e11920 0.0 102011
03:00+9e11941 0.0 102010
06:00+8ese11965 0.0 102010
09:00+13s11740 0.0 1020219
12:00+20ssw11430 0.0 1019965
15:00+21ssw12350 0.0 10161279
18:00+13e11640 0.0 101710
21:00+11e11710 0.0 101911
19 may, wed
wed1900:00+9e11745 0.0 101911
03:00+8ene117789 0.0 101810
06:00+7e117732 0.0 101710
09:00+14ne124970 0.0 1018159
12:00+22wnw12305 0.0 1016728
15:00+23wnw22281 0.0 1014965
18:00+15e11545 0.0 101411
21:00+12ene21605 0.0 101511
20 may, thu
thu2000:00+11ene116157 0.0 101511
03:00+11ne11556 0.0 101415
06:00+11ene115699 0.0 101511
09:00+17e1247100 0.0 1015136
12:00+25wnw1238100 0.0 1013666
15:00+20ssw005838 0.0 101211
18:00+18se2166100 0.0 101317
21:00+16sse1169100 0.0 101418
21 may, fri
fri2100:00+13e228973 0.6 101430
03:00+15e2383100 0.6 101174
06:00+14se2284100 0.0 101157
09:00+15nw1292100 1.0 101273
12:00+15e1196100 0.3 101259
15:00+16e1298100 5.1 100990
18:00+16sse1299100 1.8 100986
21:00+15nne1299100 4.6 101186